SCP
0 0 0 0 0 0 0 0 0 0 0 0 0 -0 -0 -0 0 0 0 0 1 1 1 0 0 1 1 1 1 1 1 1 1 1 1 0 0 0 0 0 0 0 0 0 0 0 0 0 0
0 0 0 0 0 0 0 0 0 0 0 0 0 -0 -0 0 0 0 0 0 1 1 1 0 0 1 1 1 1 1 1 1 1 1 1 1 0 0 0 0 0 0 0 0 0 0 0 0 0
-0 0 0 0 0 0 0 0 0 0 0 0 0 0 0 0 0 0 0 0 1 1 0 0 1 1 1 1 1 1 1 1 1 1 1 1 0 0 0 0 0 0 0 0 0 0 0 0 0
0 0 0 0 0 0 0 0 0 0 0 0 0 0 0 0 0 0 0 1 1 0 0 0 1 1 1 1 1 1 1 1 1 1 1 1 1 0 0 0 0 0 0 0 0 0 0 0 0
0 0 0 0 0 0 0 0 0 0 0 0 0 0 0 0 0 0 1 1 0 0 0 0 0 0 1 1 1 1 1 1 1 1 1 1 1 0 0 0 0 0 0 0 0 0 0 0 0
0 0 0 0 0 0 0 0 0 0 0 0 0 0 0 0 0 1 1 0 0 0 0 0 0 0 0 1 1 1 1 1 1 1 1 1 1 0 0 0 0 0 0 0 0 0 0 0 0
0 0 0 0 0 0 0 0 0 0 0 0 0 0 0 0 1 1 1 0 0 0 0 0 0 0 0 0 1 1 1 1 1 1 1 1 1 0 0 0 0 0 0 0 0 0 0 0 0
0 0 0 0 0 0 0 0 0 0 0 0 0 0 0 1 1 1 1 0 0 0 0 0 0 0 0 0 0 1 1 1 1 1 1 0 0 0 0 0 0 0 0 0 0 0 0 0 0
0 0 0 0 0 0 0 0 0 0 0 0 0 0 0 1 1 1 1 1 1 0 0 0 0 0 0 0 0 0 0 1 1 0 0 0 0 0 0 0 0 0 0 0 0 0 0 0 0
0 0 0 0 0 0 0 0 0 0 0 0 0 0 0 1 1 1 1 1 1 0 0 0 0 0 0 0 0 0 0 0 0 0 0 0 0 0 0 0 0 0 0 0 0 0 0 0 0
0 0 0 0 0 0 0 0 0 0 0 0 0 0 0 1 1 1 1 1 1 0 0 0 0 0 0 0 0 0 0 0 0 0 0 0 0 0 0 0 0 0 0 0 0 0 0 0 0
0 0 0 0 0 0 0 0 0 0 0 0 0 0 0 1 1 1 1 1 0 0 0 0 0 0 0 0 0 0 0 0 0 0 0 0 0 0 0 0 0 0 0 0 0 0 0 0 0
0 0 0 0 0 0 0 0 0 0 0 0 0 0 0 0 0 0 0 0 0 0 0 0 0 0 0 0 0 0 0 0 0 0 0 0 0 0 0 0 0 0 0 0 0 0 0 0 0
0 0 0 0 0 0 0 0 0 0 0 0 0 0 0 0 0 0 0 0 0 0 0 0 0 0 0 0 0 0 0 0 0 0 0 0 0 0 0 0 0 0 0 0 0 0 0 0 0
0 0 0 0 0 0 0 0 0 0 0 0 0 1 1 1 0 0 0 0 0 0 0 0 0 0 0 0 0 0 0 0 0 0 0 0 0 0 0 1 1 1 1 1 1 1 1 1 0
0 0 0 0 0 0 0 0 0 0 0 0 1 1 1 1 1 1 0 0 0 0 0 0 0 0 0 0 0 0 0 0 0 0 0 1 1 1 1 1 1 1 1 1 1 1 1 1 1
0 0 0 0 0 0 0 0 0 0 0 1 1 1 1 1 1 1 1 1 0 0 0 0 0 0 0 0 1 1 1 0 1 1 1 1 1 1 1 1 1 1 1 1 1 1 1 1 1
0 0 0 0 0 0 0 0 0 1 1 1 1 1 1 1 1 1 1 1 1 1 0 0 0 1 1 1 1 1 1 1 1 1 1 1 1 1 1 1 1 1 1 1 1 1 1 1 1
0 0 0 0 0 0 0 0 1 1 1 1 1 1 1 1 1 1 1 1 1 1 1 1 1 1 1 1 1 1 1 1 1 1 1 1 1 1 1 1 1 1 1 1 1 1 1 1 1
0 0 0 0 0 0 0 0 1 1 1 1 1 1 1 1 1 1 1 1 1 1 1 1 1 1 1 1 2 2 2 1 1 1 1 1 1 1 1 1 1 1 1 1 1 1 0 0 0
0 0 0 0 0 0 0 0 1 1 1 1 1 1 1 1 1 1 1 1 1 1 1 1 1 2 2 2 2 2 2 1 1 1 1 1 1 1 1 1 1 1 1 0 0 0 0 0 0
0 0 0 0 0 0 0 0 0 1 1 1 1 1 1 1 1 1 1 1 1 1 1 1 2 2 2 2 2 2 1 1 1 1 1 0 0 0 0 0 0 0 0 0 0 0 0 0 0
0 0 0 0 0 0 0 0 0 1 1 1 1 1 1 1 1 1 1 1 1 1 1 1 2 2 2 2 2 1 1 1 1 0 0 0 0 0 0 0 0 0 0 0 0 0 0 0 0
0 0 0 0 0 0 0 0 0 1 1 1 1 1 0 0 0 0 0 1 1 1 1 1 1 1 1 1 1 1 1 1 0 0 0 0 0 0 0 0 0 0 0 0 0 0 0 0 0
0 0 0 0 0 0 0 0 1 1 1 1 0 0 0 0 0 0 0 0 0 0 0 0 0 0 1 1 1 1 0 0 0 0 0 0 0 0 0 0 0 0 0 0 0 0 0 0 0
0 0 0 0 0 0 0 0 1 1 0 0 0 0 0 0 0 0 0 0 0 0 0 0 0 0 0 0 0 0 0 0 0 0 0 0 0 0 0 0 0 0 0 0 0 0 0 0 0
0 0 0 0 0 0 0 0 1 0 0 0 0 0 0 0 0 0 0 0 0 0 0 0 0 0 0 0 0 0 0 0 0 0 0 0 0 0 0 0 0 0 0 0 0 0 0 0 0
0 0 0 0 0 0 0 0 0 0 0 0 0 0 0 0 0 0 0 0 0 0 0 0 0 0 0 0 0 0 0 0 0 0 0 0 0 0 0 0 0 0 0 0 0 0 0 0 0
0 0 0 0 0 0 0 0 0 0 0 0 0 0 0 0 0 0 0 0 0 0 0 0 0 0 0 0 0 0 0 0 0 0 0 0 0 0 0 0 0 0 0 0 0 0 0 0 0
0 0 0 0 0 0 0 0 0 0 0 0 0 0 0 0 0 0 0 0 0 0 0 0 0 0 0 0 0 0 0 0 0 0 0 0 0 0 0 0 0 0 0 0 0 0 0 0 0
Wind_Speed
9 7 7 7 9 8 4 5 3 4 3 3 2 3 3 4 5 5 6 14 16 18 19 19 14 13 14 16 17 17 18 18 17 16 16 14 13 12 11 11 11 10 11 11 11 11 11 11 10
7 5 7 7 9 8 5 5 3 6 5 3 1 3 4 1 4 6 8 14 17 18 18 18 16 14 15 16 16 17 18 18 17 16 16 15 14 12 12 11 11 10 10 10 11 10 10 10 9
6 7 8 8 11 9 5 5 2 4 2 1 1 2 2 3 4 6 10 17 18 17 17 18 17 15 15 16 16 17 18 18 17 16 16 14 13 12 11 11 11 10 10 10 10 9 9 9 8
6 7 8 11 15 11 5 2 2 5 2 1 3 2 3 5 3 8 16 18 18 17 17 19 16 16 15 15 15 16 17 16 16 16 15 13 12 11 11 11 10 10 9 9 9 8 8 7 7
7 9 13 16 18 13 7 5 6 8 5 3 4 3 4 5 7 13 18 19 18 17 17 20 15 15 15 15 15 15 15 14 14 14 13 12 11 10 10 10 9 9 9 9 8 7 6 6 5
9 10 16 18 19 15 10 8 9 9 6 4 4 4 5 7 10 16 18 18 17 17 17 19 16 16 15 15 14 13 13 13 13 13 12 11 10 10 9 9 9 8 8 8 7 7 6 5 4
12 13 19 21 18 16 12 8 10 9 8 4 4 4 7 9 12 16 17 16 17 16 17 17 18 16 15 13 13 12 12 12 12 12 11 11 10 10 9 8 8 7 7 7 6 6 5 4 3
9 12 20 21 19 17 10 9 9 9 8 3 4 5 5 13 14 16 16 15 16 15 15 17 17 17 16 15 14 13 12 12 12 12 12 11 10 10 9 9 8 7 6 6 5 5 4 3 3
8 12 17 18 16 15 9 10 10 6 8 6 4 3 5 17 17 17 16 15 15 14 14 15 16 15 15 15 15 14 13 11 12 12 11 11 10 10 9 7 8 6 5 5 4 4 4 5 7
10 14 18 11 10 10 9 11 9 9 11 9 6 4 10 17 18 19 18 18 18 17 16 14 15 15 14 11 12 10 11 11 11 9 11 8 5 4 3 11 6 4 4 5 4 4 7 10 7
10 13 11 8 9 10 11 11 11 12 12 9 6 7 13 17 18 18 18 18 18 17 15 14 14 13 13 9 9 7 6 7 9 9 9 5 5 5 4 6 8 7 8 7 7 8 7 5 3
9 10 10 9 9 11 12 12 12 14 12 5 5 6 14 17 17 17 17 17 16 16 16 14 13 12 11 9 8 7 6 6 6 7 8 6 4 4 4 3 4 4 4 3 4 4 3 4 4
13 10 10 11 11 12 12 13 12 13 10 7 5 8 13 15 15 15 14 14 15 15 15 14 12 11 9 7 6 7 6 7 6 6 7 5 5 5 4 3 3 4 3 4 4 4 3 4 5
6 9 10 11 12 11 13 12 12 10 7 6 6 9 11 13 14 14 14 14 14 14 14 13 13 11 10 8 7 6 6 5 5 5 6 6 4 3 4 4 3 3 3 3 3 3 3 4 3
7 9 11 12 12 11 10 12 11 6 5 6 6 8 10 10 12 12 12 12 12 12 12 12 12 11 10 10 8 6 6 6 5 5 5 6 5 4 4 4 4 3 2 3 3 3 3 3 3
9 10 10 8 10 9 12 10 4 2 5 6 6 8 8 8 9 9 10 9 9 10 11 11 10 12 11 9 7 5 5 5 4 4 5 6 5 5 4 4 3 2 2 2 2 3 3 3 3
10 10 8 8 6 7 11 5 7 3 3 5 6 7 7 8 7 7 7 8 8 9 10 11 11 11 11 10 7 6 4 4 4 4 4 5 5 5 5 3 2 2 2 2 2 1 3 3 3
6 7 7 7 6 5 6 5 7 6 4 5 6 7 7 7 6 5 4 4 6 8 8 9 10 10 10 8 7 6 5 4 3 3 3 3 3 3 3 2 1 1 2 1 1 1 1 2 2
4 5 5 4 4 4 6 6 7 7 6 7 7 7 8 7 7 5 4 4 4 5 7 8 9 9 9 7 7 7 6 4 3 2 2 2 2 2 2 1 1 1 1 2 2 1 2 1 1
8 8 7 6 5 4 8 8 8 8 8 8 8 8 9 8 8 7 6 5 4 4 4 5 7 8 9 7 6 5 5 4 4 3 3 3 2 2 2 2 1 1 1 1 2 2 2 1 1
9 8 5 4 6 7 9 8 7 8 9 10 10 10 10 9 8 8 7 7 6 4 2 2 3 4 6 7 6 6 5 4 4 4 4 5 5 5 5 4 2 2 1 0 0 1 2 1 1
9 7 6 6 8 9 11 7 9 8 8 9 9 10 10 9 9 9 8 8 8 6 5 4 3 3 3 5 7 9 6 5 4 5 6 8 8 9 8 7 6 5 4 3 3 2 2 1 1
7 4 8 8 8 6 9 7 10 9 7 8 8 9 10 10 10 10 10 10 9 8 8 7 7 7 6 4 5 6 6 6 6 7 9 9 9 10 10 9 8 7 6 7 7 6 5 3 3
6 6 7 8 9 11 9 8 8 7 8 8 8 9 10 10 10 11 11 11 11 11 11 10 11 11 9 8 8 9 10 10 10 9 9 8 7 8 11 10 9 8 7 7 7 7 8 6 6
10 10 9 11 11 8 6 5 8 9 9 10 10 9 10 10 11 11 12 12 12 12 12 12 13 13 12 12 11 11 11 11 11 10 10 9 7 8 9 9 9 8 7 7 7 8 8 8 7
11 13 10 8 9 7 7 5 9 10 10 12 11 11 10 11 11 12 12 11 12 13 12 12 14 14 14 14 14 13 12 10 10 11 10 10 8 8 9 9 9 9 9 8 7 7 7 6 6
10 12 9 7 5 5 7 8 8 9 11 11 11 11 11 11 11 12 12 12 13 13 13 13 15 15 15 15 16 15 15 13 13 12 11 9 8 8 10 10 10 10 9 9 7 7 7 6 6
7 6 6 9 8 7 8 9 10 15 13 12 11 11 11 11 12 12 12 13 13 13 14 15 15 15 15 15 14 13 14 13 13 12 13 11 10 9 10 10 10 9 9 8 7 7 7 6 6
7 7 7 8 7 6 7 5 6 16 16 14 13 12 12 12 12 12 12 12 12 13 13 13 14 15 14 14 14 14 13 13 12 11 12 11 10 10 10 10 9 9 9 8 7 7 7 7 6
5 5 7 7 7 7 4 6 6 12 16 16 15 13 13 13 12 12 12 12 12 13 13 13 13 14 13 13 13 13 12 12 12 12 11 10 10 10 9 9 9 9 9 8 8 8 7 7 7
Wind_Direction
271 270 259 258 251 237 200 117 87 67 57 27 327 289 306 313 324 26 100 154 149 147 144 148 145 143 140 140 140 141 142 142 142 141 139 138 135 131 129 128 126 125 124 122 120 119 118 117 117
291 272 252 252 257 238 179 139 104 43 26 358 208 239 263 290 46 92 135 148 150 146 149 154 144 143 140 138 139 141 143 143 142 141 140 139 137 133 132 131 130 128 126 124 122 120 119 119 119
261 249 262 255 245 244 188 146 68 17 35 321 269 245 293 43 99 124 138 150 149 147 151 144 148 145 142 140 140 142 143 144 143 142 141 140 138 136 135 134 131 129 127 124 122 120 121 123 123
237 225 239 247 242 237 243 186 317 312 322 318 297 242 107 53 89 126 141 152 149 151 153 146 154 149 146 144 144 144 144 144 143 142 141 140 139 137 136 134 132 130 127 125 122 121 122 124 125
232 240 238 240 240 237 235 259 286 292 301 304 283 262 126 94 105 132 147 153 153 154 153 150 155 151 151 150 147 145 144 143 142 141 140 139 137 137 136 134 132 130 128 125 123 122 121 122 125
223 231 238 238 235 233 232 246 264 275 285 289 277 259 107 115 136 146 152 157 156 155 153 148 155 156 156 155 151 147 145 143 141 140 139 138 138 137 136 133 131 129 127 125 124 123 121 119 120
236 232 240 242 240 232 228 239 254 266 274 297 298 260 121 141 144 151 153 158 157 158 154 154 161 162 162 159 156 150 146 144 142 140 141 141 141 140 138 134 132 130 129 129 128 128 127 126 126
251 245 243 242 242 239 228 234 246 263 277 311 273 256 146 144 150 152 153 159 158 161 160 161 165 165 169 168 164 156 152 149 146 147 148 145 145 148 146 157 137 137 136 135 133 135 139 148 157
235 240 240 237 240 241 224 233 236 252 263 256 252 305 75 140 152 154 154 160 161 165 165 169 165 169 175 171 162 165 161 156 156 158 155 169 181 168 173 139 134 150 150 148 148 154 168 194 185
223 236 242 251 258 250 227 236 244 242 242 234 211 143 134 152 160 164 164 166 167 170 173 173 169 172 177 170 162 176 177 169 189 172 173 194 176 179 170 120 154 168 173 178 175 189 209 230 204
227 244 251 248 252 260 250 241 245 248 242 234 225 172 162 168 172 174 172 172 171 171 174 176 176 179 177 171 169 179 182 173 192 180 182 185 183 182 190 171 173 187 197 204 174 208 223 233 250
238 244 255 254 246 246 248 249 246 242 248 265 267 195 174 180 181 180 176 174 172 173 177 179 176 181 188 179 173 181 180 179 187 178 193 182 196 202 200 215 201 197 207 218 237 237 228 254 246
235 243 238 245 248 250 254 250 252 250 253 263 247 191 184 186 184 181 175 172 174 175 178 179 183 177 187 187 187 189 189 183 183 180 193 199 201 206 200 215 226 236 226 214 239 250 240 252 240
244 248 249 246 245 241 243 242 237 243 248 238 210 189 184 185 181 173 173 176 179 178 180 177 185 178 185 189 194 187 191 189 191 193 192 201 215 204 215 217 215 240 243 255 258 253 247 250 262
254 254 243 233 231 229 229 228 224 242 238 212 188 172 171 176 174 173 174 177 179 179 180 180 186 182 190 196 197 191 193 191 200 190 192 202 214 202 226 234 222 232 245 246 256 258 255 250 248
227 234 230 195 208 204 219 204 159 208 210 191 171 157 153 156 166 166 168 174 178 180 178 184 187 185 189 197 198 199 199 191 199 196 193 201 214 209 227 241 234 229 246 251 252 256 252 252 259
214 221 205 160 179 191 217 174 78 57 154 158 151 144 142 142 147 148 160 169 175 179 178 185 192 189 189 189 190 201 192 199 202 199 201 198 210 209 217 233 237 227 232 242 254 250 269 267 276
205 208 194 173 141 185 184 117 71 58 91 118 121 123 124 121 109 110 130 156 169 174 177 182 188 189 186 185 187 191 191 193 196 194 198 191 198 203 212 215 195 224 226 217 222 218 290 308 296
276 249 202 160 126 172 142 103 72 61 77 93 100 103 103 95 86 83 94 117 138 155 169 178 186 183 184 185 187 184 180 169 154 140 135 156 167 153 157 177 155 197 208 194 180 178 192 245 287
238 234 207 166 148 174 133 106 80 65 69 73 83 88 87 83 79 73 71 83 108 133 152 173 186 184 186 183 182 173 150 141 128 113 92 76 74 85 110 96 91 116 170 179 174 188 209 188 259
228 233 222 182 158 168 160 139 115 90 82 79 77 80 80 77 77 73 67 63 67 73 98 135 170 177 180 172 166 148 137 137 138 121 91 60 54 55 60 73 66 65 58 86 40 268 242 215 173
224 217 236 222 220 190 212 182 141 126 102 84 77 75 75 73 73 68 63 56 51 49 56 68 83 105 133 158 166 165 162 151 124 106 92 72 57 53 52 58 58 53 49 45 38 28 347 321 192
244 223 229 231 238 221 206 213 139 147 125 98 83 78 75 71 72 66 60 57 51 49 56 64 70 69 79 106 134 138 122 109 103 94 85 73 61 56 57 58 59 57 55 53 51 47 39 38 32
233 219 221 229 225 220 208 220 151 152 136 120 97 83 77 74 72 68 64 60 54 52 54 58 64 62 64 75 88 103 112 111 105 98 92 80 72 67 65 67 65 63 60 59 58 56 54 48 47
221 220 208 205 210 201 175 214 105 104 111 118 109 94 83 77 73 67 62 60 58 56 57 60 65 63 62 68 73 81 90 95 96 95 91 88 81 72 66 67 66 66 65 64 62 62 55 50 48
212 228 239 227 207 169 171 160 106 101 104 108 108 101 91 82 76 71 66 64 63 62 62 66 69 69 67 68 70 73 78 82 82 81 83 80 78 75 73 70 68 66 63 62 59 60 56 50 47
209 223 251 271 246 197 154 121 123 127 124 121 115 106 94 86 81 77 71 67 66 65 64 68 73 73 73 75 76 75 76 80 84 85 83 82 82 82 76 73 69 63 59 56 55 57 47 39 31
260 230 225 244 228 209 177 182 171 164 155 140 127 115 104 97 89 83 77 74 71 71 71 70 72 74 74 76 79 82 82 83 85 84 83 84 84 84 82 76 72 67 61 53 45 53 45 35 33
203 212 235 250 268 248 198 159 129 161 157 147 134 124 115 106 98 92 87 82 80 78 76 76 77 77 77 77 80 81 82 84 86 87 89 88 85 82 78 75 72 66 59 53 47 42 37 27 21
242 236 234 244 235 261 262 105 98 147 146 141 132 124 117 110 103 98 94 89 86 82 80 78 79 80 82 83 83 83 83 84 85 85 85 86 83 80 78 75 70 65 59 50 42 33 27 19 10